Regional Weather Roundup
Issued by NWS Northern Indiana

Home | Current Version | Previous Version | Graphics & Text | Print | Product List | Glossary On
Versions: 1 2 3 4 5 6 7 8 9 10 11 12 13 14 15 16 17 18 19 20 21 22 23 24 25 26 27 28 29 30 31 32 33 34 35 36 37 38 39 40 41 42 43 44 45 46 47 48 49 50
000
ASUS43 KIWX 220410
RWRIWX

KIWX WEATHER ROUNDUP
NATIONAL WEATHER SERVICE NORTHERN INDIANA
1200 AM EDT FRI MAY 22 2015

NOTE: "FAIR" INDICATES FEW OR NO CLOUDS BELOW 12,000 FEET WITH NO
SIGNIFICANT WEATHER AND/OR OBSTRUCTIONS TO VISIBILITY.

* THESE STATIONS ARE NOT UNDER NWS QUALITY CONTROL. THEY ALSO MAY NOT
  REPORT WEATHER SUCH AS PRECIPITATION OR FOG.

INZ001>027-220500-
NORTHERN INDIANA

CITY           SKY/WX    TMP DP  RH WIND       PRES   REMARKS
GARY*          CLEAR     58  38  46 SW3       30.05S
VALPARAISO     CLEAR     53  36  52 SW7       30.06R
MICHIGAN CITY* CLEAR     52  36  54 S3        30.05R
LAPORTE*       PTCLDY    55  38  52 SW5       30.05S
KNOX*          CLEAR     52  34  50 SW5       30.05S
SOUTH BEND     CLEAR     53  36  52 SW9       30.05S
GOSHEN         CLEAR     48  37  65 SW9       30.04S
MONTICELLO*    CLEAR     50  39  67 SW6       30.08R
LOGANSPORT*    CLEAR     50  36  57 SW9       30.09R
ROCHESTER*     CLEAR     55  36  47 SW3       30.07S
WARSAW*        CLEAR     46  41  81 CALM      30.06S
ANGOLA*        CLEAR     48  37  66 CALM      30.03S
FORT WAYNE     CLEAR     50  41  71 W7        30.07R
HUNTINGTON*    CLEAR     50  40  67 CALM      30.06S
PERU/GRISSOM   CLEAR     47  39  75 SW12      30.07R
MARION*        CLEAR     51  38  63 SW10      30.09S

$$
INZ028>050-220500-
CENTRAL INDIANA

CITY           SKY/WX    TMP DP  RH WIND       PRES   REMARKS
LAFAYETTE      CLEAR     50  41  71 W3        30.10R
KOKOMO*        CLEAR     50  37  62 SW9       30.09S
MUNCIE*        CLEAR     53  37  54 SW7       30.09S
INDIANAPOLIS   CLEAR     51  41  68 SW9       30.11S

$$
MIZ043>046-050>051-056>058-064>065-071>073-077>080-220500-
SOUTHWEST LOWER MICHIGAN

CITY           SKY/WX    TMP DP  RH WIND       PRES   REMARKS
BATTLE CREEK   CLOUDY    55  37  50 SW10      30.00S
BENTON HARBOR  PTCLDY    54  36  50 SW6       30.01S
COLDWATER*     CLEAR     51  33  51 SW7       30.02S
HILLSDALE*     MOCLDY    54  34  46 W6        30.02S
HOLLAND        CLOUDY    53  39  59 W12       30.01R
GRAND RAPIDS   LGT RAIN  55  43  63 SW8       30.00R
KALAMAZOO      MOCLDY    53  36  52 SW7       30.01S
STURGIS*       CLEAR     50  36  57 SW3       30.03S
THREE RIVERS*  FAIR      50  36  58 SW6       30.03R

$$
OHZ001>008-015>018-024>025-220500-
NORTHWEST OHIO

CITY           SKY/WX    TMP DP  RH WIND       PRES   REMARKS
WAUSEON*       FAIR      50  37  62 W7        30.03R
DEFIANCE       CLEAR     46  36  68 SW6       30.04S
FINDLAY        CLEAR     50  38  63 SW7       30.04S
TOLEDO EXPRESS CLEAR     50  35  56 SW5       30.02S
TOLEDO METCALF CLEAR     48  36  63 SW5       30.03S
LIMA           CLEAR     50  38  63 SW7       30.06S

$$
AND FOR LAKE MICHIGAN COASTAL AND OPEN LAKE BUOY OBSERVATIONS

STATION/POSITION TEMP    WIND        PRES    VSBY  WAVE
                 AIR SEA DIR/SP/G                  HT/PER
                 (F)     (DEG/KT/KT) (MB)    (MI)  (FT/S)
CALUMET HARBOR    60     210/  6/  9   N/A
MICHIGAN CITY     59     180/ 11/ 14   N/A
BURNS HARBOR      60     200/  8/ 12 1017.6S
SAINT JOSEPH      58     180/ 12/ 18 1017.3R
SOUTH LAKE BUOY   47 38  270/ 10/ 12 1016.9R         1/ 4
4 MI NW BRIDGMAN  56 53  230/ 12/ 14   N/A           1
MICHIGAN CITY     55 51  210/  8/ 10   N/A           1
MICHIGAN CITY CG     54                N/A           1

$$
&&


USA.gov is the U.S. government's official web portal to all federal, state and local government web resources and services.